CW2888 Weather Reports


time (UTC)temp
C
wind
direction
speed
KPH
gust
KPH
rain 1hr
cm
rain 24hr
cm
rain mn
cm
humidity
%
barometer
mb
20260510202306 10 11 0.0 3.2 0.00 0.00 0.00 60 1014.6
20260510201805 10 16 0.0 3.2 0.00 0.00 0.00 59 1014.5
20260510201305 10 19 1.6 3.2 0.00 0.00 0.00 59 1014.5
20260510200305 11 10 3.2 4.8 0.00 0.00 0.00 58 1014.4
20260510194305 11 13 3.2 8.0 0.00 0.00 0.00 55 1014.6
20260510193805 11 15 1.6 4.8 0.00 0.00 0.00 55 1014.6
20260510193305 11 31 3.2 11.3 0.00 0.00 0.00 54 1014.6
20260510191805 12 35 3.2 4.8 0.00 0.00 0.00 54 1014.5
20260510190805 12 25 3.2 8.0 0.00 0.00 0.00 55 1014.4
20260510190305 12 349 3.2 9.7 0.00 0.00 0.00 55 1014.4
20260510185306 13 39 1.6 11.3 0.00 0.00 0.00 54 1014.4
20260510184805 13 64 3.2 9.7 0.00 0.00 0.00 53 1014.4
20260510184305 13 73 3.2 8.0 0.00 0.00 0.00 52 1014.4
20260510183805 13 61 3.2 8.0 0.00 0.00 0.00 53 1014.4
20260510183305 13 69 4.8 16.1 0.00 0.00 0.00 52 1014.4
20260510182805 13 89 8.0 16.1 0.00 0.00 0.00 52 1014.4
20260510182306 13 78 3.2 14.5 0.00 0.00 0.00 52 1014.4
20260510181804 13 81 6.4 16.1 0.00 0.00 0.00 52 1014.4
20260510181305 13 62 4.8 12.9 0.00 0.00 0.00 53 1014.4
20260510180804 13 46 3.2 9.7 0.00 0.00 0.00 54 1014.4
20260510180305 13 56 3.2 11.3 0.00 0.00 0.00 54 1014.4
20260510175804 13 64 4.8 11.3 0.00 0.00 0.00 53 1014.5
20260510175306 13 53 4.8 9.7 0.00 0.00 0.00 54 1014.6
20260510174805 13 59 4.8 12.9 0.00 0.00 0.00 54 1014.6
20260510174305 13 60 4.8 12.9 0.00 0.00 0.00 54 1014.6
20260510173804 13 53 4.8 16.1 0.00 0.00 0.00 54 1014.6
20260510173305 13 51 8.0 16.1 0.00 0.00 0.00 54 1014.7
20260510172306 13 58 8.0 19.3 0.00 0.00 0.00 54 1014.8
20260510171805 13 34 3.2 9.7 0.00 0.00 0.00 55 1014.8
20260510171305 13 40 4.8 16.1 0.00 0.00 0.00 56 1014.8
20260510170805 13 58 3.2 8.0 0.00 0.00 0.00 55 1014.9
20260510170305 13 61 3.2 16.1 0.00 0.00 0.00 54 1014.9
20260510165306 13 49 4.8 9.7 0.00 0.00 0.00 55 1014.9
20260510164805 13 58 9.7 20.9 0.00 0.00 0.00 54 1014.9
20260510164304 13 82 4.8 14.5 0.00 0.00 0.00 56 1015.0
20260510163805 13 46 4.8 19.3 0.00 0.00 0.00 56 1015.1
20260510163305 13 37 8.0 14.5 0.00 0.00 0.00 55 1015.1
20260510162805 13 50 4.8 22.5 0.00 0.00 0.00 56 1015.1
20260510162306 13 48 4.8 16.1 0.00 0.00 0.00 57 1015.2
20260510161805 13 57 6.4 16.1 0.00 0.00 0.00 57 1015.3
20260510161304 13 36 4.8 16.1 0.00 0.00 0.00 58 1015.4
20260510160304 13 42 4.8 9.7 0.00 0.00 0.00 59 1015.5
20260510155805 13 47 6.4 16.1 0.00 0.00 0.00 58 1015.5
20260510154805 13 74 6.4 20.9 0.00 0.00 0.00 58 1015.6
20260510154305 13 42 3.2 9.7 0.00 0.00 0.00 58 1015.7
20260510153805 13 46 8.0 14.5 0.00 0.00 0.00 60 1015.7
20260510153305 13 20 3.2 19.3 0.00 0.00 0.00 61 1015.7
20260510152805 13 26 4.8 12.9 0.00 0.00 0.00 60 1015.7
20260510152307 13 22 6.4 20.9 0.00 0.00 0.00 59 1015.8
20260510151805 13 49 8.0 20.9 0.00 0.00 0.00 60 1015.9
20260510151305 13 84 4.8 12.9 0.00 0.00 0.00 61 1015.9
20260510150805 13 43 3.2 9.7 0.00 0.00 0.00 62 1016.0
20260510150305 12 65 4.8 11.3 0.00 0.00 0.00 62 1016.1
20260510145805 12 61 4.8 14.5 0.00 0.00 0.00 62 1016.2
20260510145306 12 21 6.4 12.9 0.00 0.00 0.00 62 1016.2
20260510144804 12 43 4.8 12.9 0.00 0.00 0.00 62 1016.3
20260510144304 12 35 4.8 12.9 0.00 0.00 0.00 62 1016.4
20260510143805 12 66 8.0 16.1 0.00 0.00 0.00 63 1016.5
20260510142804 12 32 4.8 14.5 0.00 0.00 0.00 63 1016.6
20260510141804 12 71 8.0 16.1 0.00 0.00 0.00 63 1016.7
20260510141304 12 70 8.0 16.1 0.00 0.00 0.00 64 1016.8
20260510140808 12 42 8.0 14.5 0.00 0.00 0.00 64 1016.9
20260510135804 12 44 6.4 19.3 0.00 0.00 0.00 65 1016.9
20260510135306 12 54 6.4 14.5 0.00 0.00 0.00 65 1016.9
20260510134804 12 44 8.0 14.5 0.00 0.00 0.00 64 1016.9
20260510134305 12 45 9.7 22.5 0.00 0.00 0.00 66 1016.9
20260510133804 12 65 8.0 16.1 0.00 0.00 0.00 66 1016.9
20260510133304 12 66 8.0 16.1 0.00 0.00 0.00 65 1016.9
20260510132805 12 59 8.0 16.1 0.00 0.00 0.00 66 1016.9
20260510131805 12 53 6.4 19.3 0.00 0.00 0.00 66 1016.9
20260510131305 12 69 8.0 20.9 0.00 0.00 0.00 66 1017.0
20260510130804 12 68 9.7 19.3 0.00 0.00 0.00 67 1017.1
20260510130305 12 71 9.7 20.9 0.00 0.00 0.00 67 1017.1
20260510125804 12 50 6.4 19.3 0.00 0.00 0.00 68 1017.1
20260510125308 12 57 6.4 20.9 0.00 0.00 0.00 68 1017.1
20260510124805 12 67 8.0 16.1 0.00 0.00 0.00 68 1017.2
20260510124306 12 64 6.4 19.3 0.00 0.00 0.00 69 1017.3
20260510123805 12 31 6.4 16.1 0.00 0.00 0.00 69 1017.3
20260510123305 12 39 4.8 14.5 0.00 0.00 0.00 69 1017.4
20260510122804 12 81 8.0 16.1 0.00 0.00 0.00 70 1017.3
20260510122306 12 54 8.0 20.9 0.00 0.00 0.00 69 1017.4
20260510121806 12 23 6.4 14.5 0.00 0.00 0.00 70 1017.4
20260510121305 12 74 4.8 12.9 0.00 0.00 0.00 70 1017.5
20260510120805 12 58 8.0 20.9 0.00 0.00 0.00 69 1017.5
20260510120305 12 53 8.0 16.1 0.00 0.00 0.00 69 1017.6
20260510115805 12 48 8.0 16.1 0.00 0.00 0.00 70 1017.5
20260510114805 12 58 9.7 24.1 0.00 0.00 0.00 68 1017.6
20260510114304 12 54 9.7 20.9 0.00 0.00 0.00 68 1017.7
20260510113305 11 15 9.7 24.1 0.00 0.00 0.00 72 1017.9
20260510112805 11 52 8.0 19.3 0.00 0.00 0.00 72 1017.9
20260510112306 11 50 8.0 16.1 0.00 0.00 0.00 72 1018.0
20260510111814 11 55 4.8 20.9 0.00 0.00 0.00 74 1018.0
20260510111307 11 20 9.7 20.9 0.00 0.00 0.00 73 1018.0
20260510110305 11 61 9.7 22.5 0.00 0.00 0.00 73 1018.0
20260510105805 11 29 4.8 20.9 0.00 0.00 0.00 73 1018.1
20260510105306 11 80 8.0 16.1 0.00 0.00 0.00 75 1018.1
20260510104805 11 45 11.3 20.9 0.00 0.00 0.00 74 1018.2
20260510104305 11 48 8.0 20.9 0.00 0.00 0.00 74 1018.3
20260510103805 11 50 8.0 22.5 0.00 0.00 0.00 74 1018.3
20260510103304 11 47 11.3 19.3 0.00 0.00 0.00 74 1018.3
20260510102805 11 31 6.4 20.9 0.00 0.00 0.00 75 1018.3
20260510102306 10 39 9.7 16.1 0.00 0.00 0.00 76 1018.4
20260510101805 10 23 9.7 22.5 0.00 0.00 0.00 76 1018.4
20260510101305 10 68 11.3 20.9 0.00 0.00 0.00 77 1018.4
20260510100805 10 38 8.0 20.9 0.00 0.00 0.00 77 1018.3
20260510095805 10 35 4.8 20.9 0.00 0.00 0.00 78 1018.3
20260510095306 10 34 8.0 16.1 0.00 0.00 0.00 78 1018.4
20260510094805 10 17 9.7 22.5 0.00 0.00 0.00 78 1018.4
20260510094305 10 44 9.7 22.5 0.00 0.00 0.00 77 1018.4
20260510093805 10 27 8.0 19.3 0.00 0.00 0.00 78 1018.4
20260510093305 10 18 6.4 19.3 0.00 0.00 0.00 77 1018.5
20260510092805 10 12 8.0 16.1 0.00 0.00 0.00 77 1018.4
20260510092307 10 28 8.0 22.5 0.00 0.00 0.00 77 1018.4
20260510091805 10 5 9.7 19.3 0.00 0.00 0.00 77 1018.4
20260510090805 10 20 9.7 16.1 0.00 0.00 0.00 77 1018.4
20260510090305 10 35 8.0 27.4 0.00 0.00 0.00 77 1018.4
20260510085804 10 8 8.0 22.5 0.00 0.00 0.00 76 1018.5
20260510085306 11 53 8.0 14.5 0.00 0.00 0.00 76 1018.6
20260510084805 11 28 4.8 16.1 0.00 0.00 0.00 77 1018.6
20260510084305 11 56 4.8 11.3 0.00 0.00 0.00 75 1018.6
20260510083805 11 70 4.8 19.3 0.00 0.00 0.00 75 1018.6
20260510083304 11 65 9.7 20.9 0.00 0.00 0.00 74 1018.5
20260510082804 11 54 8.0 19.3 0.00 0.00 0.00 75 1018.5
20260510082306 11 56 8.0 24.1 0.00 0.00 0.00 75 1018.5
20260510081805 11 65 9.7 24.1 0.00 0.00 0.00 74 1018.5
20260510081305 11 51 9.7 20.9 0.00 0.00 0.00 74 1018.5
20260510080805 11 63 9.7 19.3 0.00 0.00 0.00 75 1018.5
20260510080305 11 25 11.3 22.5 0.00 0.00 0.00 77 1018.5
20260510075805 11 38 8.0 14.5 0.00 0.00 0.00 78 1018.6
20260510075306 11 43 8.0 19.3 0.00 0.00 0.00 78 1018.5
20260510074305 11 53 4.8 14.5 0.00 0.00 0.00 78 1018.5
20260510073305 11 36 8.0 22.5 0.00 0.00 0.00 78 1018.5
20260510072805 11 60 6.4 16.1 0.00 0.00 0.00 78 1018.5
20260510072306 11 44 8.0 25.7 0.00 0.00 0.00 78 1018.5
20260510071804 10 22 9.7 20.9 0.00 0.00 0.00 78 1018.5
20260510071305 10 27 8.0 19.3 0.00 0.00 0.00 78 1018.5
20260510070804 10 34 8.0 22.5 0.00 0.00 0.00 78 1018.4
20260510065805 10 44 4.8 11.3 0.00 0.00 0.00 78 1018.3
20260510064804 10 21 4.8 19.3 0.00 0.00 0.00 78 1018.4
20260510064305 10 43 8.0 20.9 0.00 0.00 0.00 79 1018.4
20260510063805 10 22 6.4 14.5 0.00 0.00 0.00 80 1018.4
20260510063305 10 59 4.8 14.5 0.00 0.00 0.00 81 1018.3
20260510062805 9 68 8.0 19.3 0.00 0.00 0.00 82 1018.3
20260510061804 9 41 4.8 16.1 0.00 0.00 0.00 83 1018.3
20260510061305 9 53 6.4 12.9 0.00 0.00 0.00 84 1018.4
20260510060805 9 52 4.8 12.9 0.00 0.00 0.00 84 1018.4
20260510060304 9 58 3.2 9.7 0.00 0.00 0.00 84 1018.4
20260510055804 8 67 4.8 16.1 0.00 0.00 0.00 84 1018.3
20260510055306 8 66 3.2 12.9 0.00 0.00 0.00 84 1018.3
20260510054805 8 52 3.2 9.7 0.00 0.00 0.00 84 1018.2
20260510053805 8 24 4.8 12.9 0.00 0.00 0.00 84 1018.3
20260510052804 8 355 3.2 8.0 0.00 0.00 0.00 84 1018.3
20260510051304 8 36 3.2 9.7 0.00 0.00 0.00 84 1018.3
20260510050804 8 37 4.8 9.7 0.00 0.00 0.00 84 1018.3
20260510050305 8 34 4.8 11.3 0.00 0.00 0.00 84 1018.3
20260510045804 8 37 4.8 11.3 0.00 0.00 0.00 83 1018.2
20260510045306 8 33 3.2 12.9 0.00 0.00 0.00 84 1018.2
20260510044805 8 49 4.8 14.5 0.00 0.00 0.00 84 1018.3
20260510044305 8 53 4.8 12.9 0.00 0.00 0.00 83 1018.3
20260510043805 8 35 4.8 9.7 0.00 0.00 0.00 83 1018.4
20260510043305 8 48 3.2 12.9 0.00 0.00 0.00 83 1018.4
20260510042804 8 62 4.8 9.7 0.00 0.00 0.00 83 1018.3
20260510041805 8 36 4.8 11.3 0.00 0.00 0.00 83 1018.5
20260510041304 8 48 4.8 9.7 0.00 0.00 0.00 83 1018.5
20260510040804 8 42 3.2 11.3 0.00 0.00 0.00 82 1018.5
20260510035804 8 22 3.2 9.7 0.00 0.00 0.00 82 1018.6
20260510035306 8 36 4.8 9.7 0.00 0.00 0.00 82 1018.6
20260510034804 8 47 1.6 9.7 0.00 0.00 0.00 82 1018.6
20260510034304 8 42 4.8 14.5 0.00 0.00 0.00 82 1018.6
20260510033804 8 47 4.8 11.3 0.00 0.00 0.00 82 1018.6
20260510032805 8 38 8.0 20.9 0.00 0.00 0.00 82 1018.7
20260510032306 8 28 6.4 16.1 0.00 0.00 0.00 82 1018.7
20260510031804 8 26 4.8 12.9 0.00 0.00 0.00 82 1018.7
20260510031305 8 59 4.8 19.3 0.00 0.00 0.00 82 1018.7
20260510030804 8 26 8.0 16.1 0.00 0.00 0.00 82 1018.8
20260510030304 8 45 4.8 14.5 0.00 0.00 0.00 82 1018.7
20260510025804 8 44 8.0 14.5 0.00 0.00 0.00 82 1018.6
20260510025306 8 50 4.8 12.9 0.00 0.00 0.00 82 1018.6
20260510024804 8 33 4.8 14.5 0.00 0.00 0.00 82 1018.6
20260510024305 8 29 6.4 9.7 0.00 0.00 0.00 82 1018.6
20260510023804 8 42 8.0 16.1 0.00 0.00 0.00 82 1018.6
20260510023304 8 19 3.2 9.7 0.00 0.00 0.00 82 1018.7
20260510022805 9 30 6.4 19.3 0.00 0.00 0.00 82 1018.7
20260510022306 9 55 8.0 19.3 0.00 0.00 0.00 82 1018.7
20260510021304 9 36 6.4 20.9 0.00 0.00 0.00 82 1018.6
20260510020305 9 12 8.0 20.9 0.00 0.00 0.00 82 1018.6
20260510015804 9 38 4.8 19.3 0.00 0.00 0.00 82 1018.5
20260510015306 9 32 8.0 19.3 0.00 0.00 0.00 82 1018.6
20260510014806 9 37 6.4 16.1 0.00 0.00 0.00 82 1018.5
20260510014304 9 7 8.0 19.3 0.00 0.00 0.00 82 1018.5
20260510013804 9 49 8.0 22.5 0.00 0.00 0.00 83 1018.5
20260510013305 9 42 9.7 22.5 0.00 0.00 0.00 83 1018.5
20260510012306 9 35 4.8 16.1 0.00 0.00 0.00 82 1018.5
20260510011804 10 51 8.0 14.5 0.00 0.00 0.00 82 1018.6
20260510011305 10 4 6.4 19.3 0.00 0.00 0.00 82 1018.5
20260510010805 10 49 6.4 19.3 0.00 0.00 0.00 82 1018.6
20260510010305 10 20 8.0 16.1 0.00 0.00 0.00 82 1018.6
20260510005805 10 32 4.8 16.1 0.00 0.00 0.00 82 1018.7
20260510005306 10 32 4.8 20.9 0.00 0.00 0.00 82 1018.7
20260510004805 10 28 4.8 12.9 0.00 0.00 0.00 82 1018.7
20260510004304 10 37 6.4 14.5 0.00 0.00 0.00 82 1018.7
20260510003305 10 59 4.8 16.1 0.00 0.00 0.00 82 1018.8
20260510001805 10 22 8.0 20.9 0.00 0.00 0.00 81 1018.6
20260510000805 11 23 6.4 14.5 0.00 0.00 0.00 81 1018.6
20260509235804 11 17 4.8 22.5 0.00 0.00 0.00 80 1018.3
20260509235307 11 45 8.0 19.3 0.00 0.00 0.00 80 1018.2
20260509234804 11 34 8.0 16.1 0.00 0.00 0.00 80 1018.2
20260509234304 11 21 8.0 22.5 0.00 0.00 0.00 80 1018.2
20260509233804 11 24 8.0 14.5 0.00 0.00 0.00 79 1018.0
20260509233304 11 13 8.0 16.1 0.00 0.00 0.00 79 1018.0
20260509232805 11 22 8.0 20.9 0.00 0.00 0.00 79 1018.1
20260509232306 11 21 8.0 14.5 0.00 0.00 0.00 79 1018.2
20260509231805 11 45 9.7 24.1 0.00 0.00 0.00 79 1018.1
20260509231304 11 16 8.0 20.9 0.00 0.00 0.00 79 1018.1
20260509230816 11 22 3.2 19.3 0.00 0.00 0.00 79 1018.0
20260509230305 11 44 6.4 22.5 0.00 0.00 0.00 79 1017.9
20260509225805 12 28 11.3 20.9 0.00 0.00 0.00 79 1018.0
20260509225306 12 51 9.7 25.7 0.00 0.00 0.00 79 1018.0
20260509224804 12 42 9.7 22.5 0.00 0.00 0.00 79 1018.0
20260509224304 12 39 4.8 14.5 0.00 0.00 0.00 79 1017.9
20260509223804 12 43 4.8 19.3 0.00 0.00 0.00 78 1017.9
20260509223305 12 24 8.0 16.1 0.00 0.00 0.00 78 1018.0
20260509222804 12 28 6.4 19.3 0.00 0.00 0.00 78 1017.9
20260509222307 12 37 8.0 20.9 0.00 0.00 0.00 78 1018.0
20260509221804 12 29 8.0 24.1 0.00 0.00 0.00 77 1018.0
20260509221304 12 34 8.0 19.3 0.00 0.00 0.00 77 1018.0
20260509220804 12 37 8.0 20.9 0.00 0.00 0.00 77 1018.0
20260509220305 13 34 9.7 20.9 0.00 0.00 0.00 76 1017.9
20260509215804 13 354 8.0 19.3 0.00 0.00 0.00 76 1017.9
20260509215306 13 28 9.7 20.9 0.00 0.00 0.00 76 1017.9
20260509214804 13 36 9.7 20.9 0.00 0.00 0.00 76 1017.9
20260509214305 13 20 9.7 20.9 0.00 0.00 0.00 75 1017.9
20260509213805 13 33 8.0 24.1 0.00 0.00 0.00 75 1017.9
20260509213304 13 18 9.7 20.9 0.00 0.00 0.00 74 1017.8
20260509212306 13 14 6.4 19.3 0.00 0.00 0.00 73 1017.7
20260509211805 14 26 9.7 22.5 0.00 0.00 0.00 73 1017.6
20260509210804 14 9 8.0 24.1 0.00 0.00 0.00 72 1017.4
20260509210304 14 48 8.0 32.2 0.00 0.00 0.00 72 1017.4
20260509205805 14 10 9.7 27.4 0.00 0.00 0.00 72 1017.4
20260509205307 15 13 9.7 24.1 0.00 0.00 0.00 72 1017.3
20260509204304 15 24 4.8 16.1 0.00 0.00 0.00 72 1017.3
20260509203805 15 359 8.0 14.5 0.00 0.00 0.00 71 1017.3
20260509203305 15 345 9.7 22.5 0.00 0.00 0.00 71 1017.2
20260509202805 15 312 6.4 14.5 0.00 0.00 0.00 70 1017.2